Pendleton, OR

11:36 AM PST on December 16, 2017 (GMT -0800)
Eastern Oreg Regional At Pendleton

Weather History for KPDT - December, 2013

Change the Weather History Date:

Friday, December 20, 2013

  Actual Average Record
Temperature  
Mean Temperature 33 °F 32 °F  
Max Temperature 42 °F 39 °F 66 °F (1900)
Min Temperature 23 °F 26 °F -12 °F (1990)
Degree Days  
Heating Degree Days 32 33  
Month to date heating degree days 752 628  
Since 1 July heating degree days 2135 1881  
Cooling Degree Days 0 0  
Month to date cooling degree days 0 0  
Year to date cooling degree days 831 636  
Moisture  
Dew Point 26 °F    
Average Humidity 74    
Maximum Humidity 100    
Minimum Humidity 47    
Precipitation  
Precipitation 0.24 in 0.05 in 0.82 in (1895)
Month to date precipitation 0.69 0.96  
Year to date precipitation 9.17 12.15  
Snow  
Snow 2.10 in 0.20 in 4.50 in (1952)
Month to date snowfall 6.5 3.6  
Year to date snowfall 6.7 12.8  
Since 1 July snowfall 6.5 5.1  
Snow Depth T in    
Sea Level Pressure  
Sea Level Pressure 29.88 in    
Wind  
Wind Speed 11 mph (South)    
Max Wind Speed 26 mph    
Max Gust Speed 35 mph    
Visibility 5 miles    
Events Fog , Rain , Snow    
T = Trace of Precipitation, MM = Missing Value Source: NWS Daily Summary

Daily Weather History Graph

Daily Weather History Graph

Search for Another Location

Airport or City:

Trip Planner

Search our weather history database for the weather conditions in past years. The results will help you decide how hot, cold, wet, or windy it might be!

Date:

Astronomy

Dec. 20, 2013 Rise Set
Actual Time 7:32 AM PST 4:13 PM PST
Civil Twilight 6:58 AM PST 4:48 PM PST
Nautical Twilight 6:20 AM PST 5:25 PM PST
Astronomical Twilight 5:44 AM PST 6:02 PM PST
Moon 7:48 PM PST (12/20) 9:21 AM PST (12/20)
Length of Visible Light 9h 49m
Length of Day
8h 40m
Waning Gibbous, 90% of the Moon is Illuminated
Dec 20
Waning Gibbous
Dec 25
Last Quarter
Jan 1
New
Jan 7
First Quarter
Jan 15
Full

Hourly Weather History & Observations

Time (PST) Temp. Windchill Dew Point Humidity Pressure Visibility Wind Dir Wind Speed Gust Speed Precip Events Conditions
12:53 AM 25.0 °F 14.2 °F 12.0 °F 58% 30.13 in 10.0 mi South 11.5 mph - N/A   Mostly Cloudy
1:53 AM 25.0 °F 14.2 °F 12.0 °F 58% 30.11 in 10.0 mi South 11.5 mph - N/A   Clear
2:53 AM 27.0 °F 19.5 °F 10.9 °F 51% 30.09 in 10.0 mi South 6.9 mph - N/A   Clear
3:53 AM 26.1 °F 16.8 °F 12.0 °F 55% 30.07 in 10.0 mi South 9.2 mph - N/A   Clear
4:53 AM 25.0 °F 16.3 °F 12.0 °F 58% 30.04 in 10.0 mi South 8.1 mph - N/A   Partly Cloudy
5:53 AM 24.1 °F 13.7 °F 10.9 °F 57% 30.03 in 10.0 mi South 10.4 mph - N/A   Clear
6:53 AM 27.0 °F 18.7 °F 12.0 °F 53% 30.02 in 10.0 mi South 8.1 mph - N/A   Overcast
7:53 AM 30.0 °F 23.2 °F 12.0 °F 47% 30.00 in 10.0 mi South 6.9 mph - N/A   Overcast
8:30 AM 32.0 °F 21.2 °F 21.0 °F 64% 29.99 in 2.5 mi West 16.1 mph - 0.00 in Snow Light Snow
8:35 AM 30.0 °F 20.5 °F 23.0 °F 75% 29.99 in 1.2 mi West 11.5 mph - 0.00 in Snow Light Snow
8:45 AM 28.9 °F 20.4 °F 24.1 °F 82% 30.00 in 0.8 mi West 9.2 mph - 0.00 in Snow Light Snow
8:53 AM 28.0 °F 20.0 °F 25.0 °F 88% 30.04 in 0.5 mi West 8.1 mph - 0.00 in Fog , Snow Snow
9:11 AM 28.0 °F 22.8 °F 26.1 °F 92% 30.00 in 0.2 mi WSW 4.6 mph - 0.02 in Fog , Snow Snow
9:20 AM 28.9 °F 23.9 °F 27.0 °F 92% 29.99 in 0.2 mi SW 4.6 mph - 0.03 in Fog , Snow Snow
9:34 AM 28.9 °F 22.8 °F 28.0 °F 96% 29.98 in 0.2 mi SSW 5.8 mph - 0.05 in Fog , Snow Snow
9:53 AM 28.9 °F 23.9 °F 28.0 °F 96% 30.01 in 0.2 mi South 4.6 mph - 0.07 in Fog , Snow Snow
10:01 AM 28.9 °F 21.9 °F 27.0 °F 92% 29.96 in 0.5 mi South 6.9 mph - 0.01 in Fog , Snow Snow
10:05 AM 28.0 °F 20.0 °F 27.0 °F 96% 29.96 in 0.2 mi South 8.1 mph - 0.01 in Fog , Snow Light Snow
10:15 AM 28.0 °F 21.7 °F 27.0 °F 96% 29.95 in 0.2 mi South 5.8 mph - 0.02 in Fog , Snow Snow
10:53 AM 28.9 °F 22.8 °F 28.0 °F 96% 29.94 in 0.5 mi SSE 5.8 mph - 0.08 in Fog , Snow Snow
11:04 AM 28.9 °F 23.9 °F 28.0 °F 96% 29.91 in 0.2 mi SSE 4.6 mph - 0.01 in Fog , Snow Snow
11:21 AM 30.0 °F 25.2 °F 28.9 °F 96% 29.90 in 0.8 mi SSE 4.6 mph - 0.02 in Snow Light Snow
11:23 AM 30.0 °F 24.1 °F 28.9 °F 96% 29.89 in 1.5 mi SSE 5.8 mph - 0.02 in Snow Light Snow
11:32 AM 30.0 °F 23.2 °F 28.9 °F 96% 29.88 in 2.5 mi SSE 6.9 mph - 0.02 in Snow Light Snow
11:44 AM 30.9 °F 23.5 °F 30.0 °F 96% 29.86 in 1.8 mi SSE 8.1 mph - 0.02 in Snow Light Snow
11:53 AM 30.9 °F 22.8 °F 30.0 °F 96% 29.87 in 1.5 mi SSE 9.2 mph - 0.02 in Snow Light Snow
12:10 PM 32.0 °F 24.2 °F 30.0 °F 92% 29.83 in 2.0 mi SSE 9.2 mph - 0.01 in Snow Light Snow
12:24 PM 32.0 °F 24.2 °F 30.9 °F 96% 29.81 in 1.5 mi SSE 9.2 mph - 0.01 in Snow Light Snow
12:27 PM 32.0 °F 24.2 °F 30.9 °F 96% 29.81 in 1.0 mi SSE 9.2 mph - 0.02 in Snow Light Snow
12:36 PM 32.0 °F 23.6 °F 30.9 °F 96% 29.80 in 0.8 mi SSE 10.4 mph - 0.03 in Snow Light Snow
12:41 PM 32.0 °F 24.2 °F 30.9 °F 96% 29.80 in 1.5 mi SSE 9.2 mph - 0.03 in Snow Light Snow
12:47 PM 33.8 °F 25.8 °F 30.2 °F 87% 29.79 in 3.0 mi SSE 10.4 mph - 0.04 in Snow Light Snow
12:48 PM 33.1 °F 24.9 °F 30.9 °F 92% 29.82 in 3.0 mi SSE 10.4 mph - 0.04 in Snow Light Snow
12:56 PM 33.1 °F 24.9 °F 30.9 °F 92% 29.78 in 7.0 mi SSE 10.4 mph - 0.00 in Snow Light Snow
1:53 PM 35.1 °F 27.9 °F 30.9 °F 85% 29.73 in 10.0 mi SSE 9.2 mph - 0.00 in   Overcast
2:53 PM 37.0 °F 31.0 °F 30.0 °F 76% 29.69 in 10.0 mi South 8.1 mph - N/A   Overcast
3:53 PM 35.1 °F 26.4 °F 30.9 °F 85% 29.70 in 7.0 mi WNW 12.7 mph - 0.03 in Rain Light Rain
4:53 PM 34.0 °F 25.5 °F 30.9 °F 89% 29.71 in 10.0 mi South 11.5 mph - 0.00 in   Overcast
5:53 PM 34.0 °F 28.0 °F 30.9 °F 89% 29.68 in 10.0 mi SSW 6.9 mph - N/A   Partly Cloudy
6:53 PM 37.9 °F 35.5 °F 33.1 °F 83% 29.67 in 10.0 mi Variable 3.5 mph - N/A   Mostly Cloudy
7:53 PM 39.9 °F 31.1 °F 34.0 °F 79% 29.66 in 10.0 mi West 17.3 mph - N/A   Clear
8:53 PM 41.0 °F 31.9 °F 35.1 °F 79% 29.68 in 10.0 mi West 19.6 mph - N/A   Overcast
9:53 PM 42.1 °F 32.1 °F 35.1 °F 76% 29.70 in 10.0 mi West 25.3 mph 34.5 mph N/A   Overcast
10:53 PM 41.0 °F 31.9 °F 36.0 °F 82% 29.73 in 10.0 mi West 19.6 mph - N/A   Overcast
11:53 PM 39.0 °F 31.4 °F 36.0 °F 89% 29.75 in 10.0 mi NW 12.7 mph - N/A   Overcast